Location: ??????????-????????
(48.4225°N, 37.6681°E)
Time: 13:43:22
(UTC+00:00)

Daily predictions for brighter satellites

Satellite Brightness Start Highest point End
(mag) Time Altitude Azimuth Time Altitude Azimuth Time Altitude Azimuth
Cosmos 1503 Rocket 4.3 17:24:01 10° S 17:28:56 46° ESE 17:33:54 10° NNE
USA 306 3.8 17:28:08 10° WNW 17:32:16 46° NNE 17:36:23 10° E
Cosmos 1743 Rocket 4.4 17:28:50 10° NNW 17:33:04 52° W 17:37:18 10° S
Cosmos 1844 3.7 17:28:23 10° SSW 17:34:06 75° ESE 17:39:46 10° NNE
Cosmos 2221 4.2 17:31:07 10° SW 17:35:10 38° WNW 17:39:15 10° N
Cosmos 1745 Rocket 4.0 17:31:15 10° N 17:37:30 83° E 17:43:39 10° S
Ariane Rocket 3.1 17:32:59 10° SSE 17:38:03 86° WSW 17:43:09 10° NNW
Cosmos 1833 Rocket 3.6 17:32:51 10° NNW 17:38:05 36° NE 17:43:17 10° ESE
Cosmos 1709 Rocket 4.2 17:33:53 10° N 17:39:52 53° ENE 17:45:49 10° SSE
ARIANE 5 R/B 4.1 17:37:53 10° ESE 17:41:13 22° ENE 17:44:34 10° NNE
Resurs 1-3 3.7 17:40:42 10° SSE 17:45:05 81° WSW 17:49:30 10° NNW
SL-4 R/B 4.3 17:42:24 10° W 17:45:22 18° SW 17:48:26 10° S
Intercosmos 24 3.6 17:43:14 10° S 17:46:53 72° E 17:50:31 10° NNE
NOSS 3-3 (A) 4.1 17:46:09 10° S 17:51:35 46° ESE 17:57:45 10° NE
NOSS 3-3 (C) 4.1 17:46:16 10° S 17:51:42 46° ESE 17:57:51 10° NE
Cosmos 1666 Rocket 3.6 17:48:36 10° N 17:53:00 67° E 17:57:20 10° SSE
ATLAS 2AS CENTAUR R/B 4.0 17:47:26 10° NW 17:54:16 35° NNE 18:00:41 10° E
USA 307 3.5 17:54:44 10° WNW 17:58:56 54° NNE 18:03:09 10° E
CZ-2C R/B 4.2 17:54:46 10° NNE 17:59:00 39° E 18:03:16 10° SSE
S3M 4.2 17:53:09 10° S 17:59:32 83° W 18:05:54 10° N
Cosmos 1354 Rocket 4.0 17:56:46 10° SSW 18:01:58 74° ESE 18:07:14 10° NNE
Cosmos 1437 3.2 18:02:05 12° SSE 18:04:18 32° E 18:06:54 10° NNE
Cosmos 2315 Rocket 4.1 17:58:51 10° S 18:05:06 62° E 18:11:24 10° NNE
Meteor 1-26 Rocket 4.2 18:00:06 10° S 18:05:43 68° E 18:11:12 10° NNE
USA 215 4.4 18:00:01 10° ENE 18:06:07 43° N 18:12:12 10° WNW
SPOT 1/Viking Rocket 3.8 18:02:19 11° SSE 18:07:14 58° ENE 18:12:20 10° N
Sich 1 3.8 18:03:04 10° NNW 18:07:18 53° W 18:11:33 10° S
USA 245 3.1 18:06:21 18° ESE 18:07:26 27° ENE 18:09:26 10° N
SJ 16-02 2.7 18:05:41 13° SE 18:08:15 21° E 18:11:35 10° NE
USA 308 3.3 18:08:20 10° WNW 18:12:36 61° NNE 18:16:32 12° ESE
OBJECT-B 3.6 18:11:46 10° SW 18:13:52 16° W 18:15:59 10° NW
Meteor 1-14 Rocket 4.3 18:10:42 10° N 18:16:35 71° ENE 18:21:47 13° SSE
Cosmos 2082 Rocket 3.1 18:12:32 10° NNW 18:17:46 38° NE 18:22:08 14° ESE
Cosmos 1500 3.2 18:14:43 10° N 18:18:28 62° ENE 18:21:15 17° SSE
Terra 3.1 18:15:16 13° ESE 18:18:30 27° ENE 18:22:28 10° N
SPOT 3 Rocket 3.8 18:16:41 10° S 18:21:49 69° WSW 18:26:59 10° NNW
SPOT 5 3.7 18:20:06 16° SE 18:23:50 42° ENE 18:28:48 10° N
COSMOS 2406 3.3 18:18:25 10° NNW 18:24:07 72° ENE 18:28:29 17° SE
Cosmos 1151 Rocket 3.1 18:21:23 10° S 18:25:45 84° W 18:30:10 10° N
Resurs 01 Rocket 2.5 18:25:18 10° S 18:29:36 49° W 18:33:56 10° NNW
Cosmos 2084 3.3 18:26:54 10° SW 18:31:02 79° SE 18:35:18 10° NE
X-37B 2.2 18:29:00 10° WSW 18:31:31 21° SSW 18:32:26 19° S
Cosmos 2228 Rocket 4.3 18:30:40 19° ESE 18:32:29 25° E 18:36:06 10° NNE
CREW DRAGON DEMO-1 DEB 2.4 18:30:51 10° WNW 18:33:31 83° NNE 18:34:39 30° ESE
Meteor 2-6 Rocket 4.3 18:29:59 13° SSE 18:34:39 53° E 18:40:02 10° NNE
Cosmos 1538 Rocket 4.1 18:29:18 10° NNW 18:34:41 71° ENE 18:38:24 20° SSE
Cosmos 773 Rocket 4.4 18:33:00 10° NNW 18:38:15 62° WSW 18:42:33 15° S
MetOp-B 4.5 18:33:49 11° S 18:38:55 64° WSW 18:44:15 10° NNW
Cosmos 2278 Rocket 2.2 18:38:06 10° S 18:43:40 60° ESE 18:49:15 10° NE
Spot 2 Rocket 3.5 18:41:55 18° SSE 18:45:41 88° WSW 18:50:46 10° NNW
Cosmos 1271 Rocket 3.3 18:44:10 25° SSE 18:45:58 41° E 18:49:46 10° NNE
BREEZE-M R/B 1.8 18:46:53 10° W 18:49:19 74° N 18:51:11 17° ENE
Cosmos 1680 Rocket 4.4 18:46:10 10° N 18:51:08 37° ENE 18:54:14 20° ESE
Cosmos 1943 Rocket 3.9 18:50:58 14° ESE 18:51:23 14° E 18:54:11 10° ENE
Cosmos 1782 4.0 18:48:40 10° SSW 18:52:28 41° WNW 18:56:16 10° N
CZ-4C R/B 3.1 18:45:27 10° NW 18:52:37 70° SW 18:58:35 21° SSE
USA 305 2.8 18:48:49 10° WNW 18:53:06 83° SSW 18:55:20 28° SE
ERS-1 Rocket 3.0 18:50:20 23° SSE 18:53:29 74° ENE 18:58:31 10° N
Cosmos 1515 Rocket 3.5 18:52:32 15° S 18:56:09 88° W 19:00:34 10° N
Cosmos 1869 Rocket 4.0 18:55:50 10° N 19:00:01 45° ENE 19:01:45 29° SE
Meteor 1-11 Rocket 3.9 18:55:56 10° N 19:01:55 66° ENE 19:05:23 26° SSE
ATLAS 5 CENTAUR R/B 4.0 19:00:43 10° WNW 19:05:24 26° WSW 19:10:14 11° SSW
Cosmos 1777 Rocket 4.5 19:07:09 10° SW 19:12:17 62° WNW 19:17:28 10° NNE
USA 306 2.9 19:08:09 10° WNW 19:12:23 65° SW 19:13:54 37° SE
Cosmos 1812 3.6 19:12:18 14° SSW 19:15:25 48° WNW 19:19:11 10° N
ARIANE 5 R/B 3.4 19:14:50 21° SSW 19:17:25 45° W 19:21:35 10° NNW
Meteor 2-12 Rocket 4.4 19:11:48 10° N 19:17:55 82° E 19:21:18 28° SSE
Cosmos 1340 Rocket 3.5 19:14:55 10° N 19:18:49 41° ENE 19:19:53 34° ESE
Cosmos 1707 Rocket 4.5 19:18:46 29° ESE 19:19:31 31° E 19:23:24 10° NNE
Cosmos 2154 Rocket 4.0 19:15:04 10° N 19:21:26 79° E 19:24:55 29° SSE
CARTOSAT-1 4.4 19:19:36 22° SSW 19:22:03 43° W 19:26:12 10° NNW
Cosmos 1833 Rocket 3.4 19:16:46 10° NW 19:22:08 44° WSW 19:25:22 22° SSW
Cosmos 1666 3.5 19:20:28 10° NNW 19:24:02 43° W 19:25:37 27° SSW
Meteor 1-10 Rocket 4.3 19:23:04 17° SSW 19:27:23 77° WNW 19:33:05 10° N
Cosmos 923 Rocket 4.0 19:22:16 10° NNW 19:27:33 87° ENE 19:29:51 35° SSE
Cosmos 1898 Rocket 4.0 19:27:02 34° SE 19:28:29 41° ESE 19:33:28 10° NE
Cosmos 2184 Rocket 4.2 19:22:39 10° NNW 19:28:51 67° W 19:32:46 23° S
SL-24 DEB 4.1 19:27:08 37° SSE 19:28:58 83° E 19:33:35 10° N
NOSS 3-4 (A) 3.9 19:25:34 10° NW 19:32:31 71° SW 19:36:40 29° SSE
NOSS 3-4 (C) 3.9 19:25:41 10° NW 19:32:37 71° SW 19:36:47 30° SSE
Cosmos 2074 Rocket 4.4 19:27:13 10° NNW 19:33:25 60° W 19:37:31 22° SSW
Cosmos 1536 2.7 19:29:43 10° N 19:33:48 89° ENE 19:34:51 49° S
Milstar 3 4.5 19:27:46 10° SW 19:36:22 22° S 19:37:10 22° S
Cosmos 1743 2.9 19:35:04 10° N 19:38:52 54° ENE 19:39:25 49° ESE
USA 307 3.3 19:34:49 10° WNW 19:38:55 46° SW 19:39:32 43° SSW
Nadezhda 1 Rocket 4.0 19:35:16 25° S 19:39:12 89° E 19:45:29 10° N
H-2A R/B 3.5 19:36:00 10° NNE 19:40:14 81° WNW 19:41:51 37° SSW
Cosmos 990 Rocket 4.0 19:40:02 36° S 19:42:05 65° ESE 19:47:18 10° NNE
Cosmos 2297 4.0 19:40:54 37° SSE 19:42:32 46° ESE 19:47:57 10° NE
ATLAS 2AS CENTAUR R/B 2.7 19:38:41 10° NW 19:46:10 90° SSW 19:49:40 33° SE
SJ 16-02 2.3 19:42:36 12° SW 19:46:31 46° WNW 19:50:49 10° N
USA 215 4.1 19:42:12 10° E 19:48:26 49° NNE 19:54:39 10° WNW
Cosmos 1975 4.2 19:45:07 10° NNE 19:48:29 25° ENE 19:48:59 25° E
Cosmos 1733 Rocket 3.4 19:45:43 10° N 19:49:56 50° ENE 19:50:44 44° ESE
USA 308 3.6 19:48:29 10° WNW 19:52:28 38° SW 19:52:37 38° SW
Terra 2.6 19:54:08 29° SSW 19:56:03 43° W 20:00:37 10° NNW
BREEZE M DEB (TANK) 3.9 19:58:54 10° W 19:59:41 15° W 19:59:41 15° W
Cosmos 2181 Rocket 4.2 19:59:49 37° SE 20:01:51 53° E 20:07:47 10° NNE
Cosmos 2082 Rocket 2.9 19:56:40 10° NW 20:01:55 41° WSW 20:03:59 30° SSW
SPOT 5 4.4 19:59:19 20° SW 20:02:00 31° W 20:06:40 10° NNW
Cosmos 1544 3.3 19:58:57 10° NNW 20:02:30 56° W 20:02:47 54° WSW
Cosmos 2112 Rocket 4.1 20:00:53 10° NNW 20:06:13 70° WSW 20:07:51 44° S
Cosmos 967 Rocket 4.4 20:05:06 35° S 20:07:41 64° ESE 20:13:54 10° NE
Cosmos 2366 rocket 4.1 20:02:52 10° N 20:09:00 61° ENE 20:11:15 39° SE
ERBS 3.0 20:07:05 10° NW 20:10:17 46° NNE 20:10:30 45° NE
Cosmos 2228 Rocket 4.3 20:08:07 21° SW 20:10:30 37° WNW 20:14:41 10° N
Cosmos 44 3.5 20:06:47 10° NW 20:12:14 74° SW 20:13:35 50° SSE
Cosmos 2341 Rocket 4.0 20:10:15 10° N 20:16:41 80° W 20:19:13 39° S
Spot 4 3.9 20:16:12 52° SE 20:17:19 73° ENE 20:22:11 10° N
Cosmos 2084 Rocket 3.3 20:18:02 10° NW 20:22:19 84° SW 20:22:44 72° SSE
Cosmos 489 Rocket 4.4 20:20:21 10° NNW 20:26:37 86° ENE 20:28:48 44° SSE
Cosmos 2278 Rocket 4.0 20:23:17 10° WSW 20:28:09 29° NW 20:33:03 10° NNE
Cosmos 1515 3.8 20:29:37 64° W 20:29:44 64° W 20:33:31 10° N
Cosmos 1937 Rocket 3.4 20:29:24 47° SSW 20:30:57 85° WNW 20:36:10 10° NNE
Cosmos 2218 Rocket 3.9 20:25:00 10° N 20:31:19 89° E 20:33:29 45° S
SL-24 R/B - RUBIN 2 4.1 20:26:20 10° NW 20:31:37 51° WSW 20:32:16 48° SSW
Cosmos 1680 Rocket 4.5 20:28:23 10° NW 20:33:14 36° WSW 20:34:33 32° SW
Cosmos 1862 Rocket 3.4 20:33:32 71° SSW 20:33:58 85° W 20:38:19 10° N
Cosmos 1943 Rocket 2.1 20:32:27 45° SSW 20:34:15 84° ESE 20:39:53 10° NNE
Cosmos 1703 Rocket 4.4 20:34:34 36° E 20:34:34 36° E 20:38:36 10° NNE
Cosmos 2369 Rocket 2.4 20:35:25 46° SE 20:36:09 49° ESE 20:41:35 10° NE
Meteor 1-19 Rocket 4.0 20:37:03 51° S 20:38:29 90° WSW 20:43:55 10° NNE
Gbstr 26 Del rocket 3.9 20:31:22 10° WNW 20:38:43 79° SSW 20:41:19 38° SE
Gblst 52 Del rocket 4.4 20:32:18 10° WNW 20:39:18 89° SSW 20:42:43 29° ESE
Cosmos 1048 Rocket 4.5 20:38:37 10° NNW 20:43:52 53° ENE 20:45:26 39° ESE
Cosmos 1238 Rocket 4.1 20:38:41 10° NNW 20:44:46 57° W 20:46:24 42° SW
Meteor 2-9 Rocket 4.3 20:39:27 10° NNW 20:45:13 69° W 20:46:44 48° SSW
COBE Rocket 4.2 20:45:01 49° SE 20:46:08 63° ENE 20:51:14 10° N
Thor Agena Rocket 4.2 20:47:05 10° NNE 20:51:59 39° E 20:52:36 37° ESE
Nadezhda 3 Rocket 4.5 20:50:28 38° SE 20:52:09 47° E 20:58:04 10° NNE
Cosmos 1818 3.7 20:47:31 10° NW 20:52:51 54° WSW 20:53:34 50° SSW
DNEPR-1 R/B 4.1 20:50:31 34° SW 20:53:03 79° NW 20:57:59 10° NE
Okean 1-7 3.3 20:54:10 53° E 20:54:10 53° E 20:58:16 10° NNE
Okean 1 4.1 20:53:59 40° W 20:54:25 42° WNW 20:58:14 10° N
Cosmos 1656 Rocket 4.0 20:54:13 43° ESE 20:54:39 43° ESE 20:59:51 10° NE
SL-8 Rocket 4.4 20:48:35 10° NNW 20:54:44 54° W 20:56:54 38° SW
Cosmos 2298 Rocket 4.5 20:55:04 43° ESE 20:55:29 44° ESE 21:00:30 10° NE
Cosmos 2263 4.3 21:01:23 51° SSE 21:02:19 58° ESE 21:08:00 10° NE
ALOS 2 2.5 21:03:43 70° SW 21:03:55 71° WSW 21:08:19 10° NNW
Meteor 2-4 Rocket 3.7 21:05:02 53° S 21:06:27 90° W 21:12:07 10° NNE
Meteor 1-13 Rocket 4.5 21:09:31 46° SE 21:10:32 52° E 21:15:54 10° NNE
Cosmos 1356 Rocket 3.9 21:06:59 10° N 21:11:11 52° ENE 21:11:28 51° E
SL-08 R/B 4.4 21:05:35 10° N 21:11:48 80° W 21:13:37 49° S
SL-27 R/B 3.3 21:17:51 10° NNW 21:20:21 46° N 21:20:21 46° N
PSLV R/B 4.4 21:18:53 10° NNE 21:22:58 38° E 21:22:58 38° E
Cosmos 2150 Rocket 4.0 21:24:01 60° SSE 21:24:50 72° ESE 21:30:09 10° NNE
Cosmos 1975 4.2 21:21:28 10° NNW 21:24:44 29° W 21:24:44 29° W
Sich 1 Rocket 4.0 21:21:31 10° N 21:26:00 54° ENE 21:26:34 50° ESE
Cosmos 1833 4.1 21:20:15 10° NNW 21:26:02 85° WSW 21:27:26 54° SSE
Cosmos 2239 Rocket 4.5 21:20:42 10° N 21:27:03 85° E 21:28:58 48° SSE
RESURS DK-1 2.4 21:23:47 10° NNW 21:27:39 71° WNW 21:27:39 71° WNW
Meteor 1-12 Rocket 4.2 21:22:29 10° NNW 21:28:25 89° ENE 21:29:52 53° SSE
SeaSat 1 2.8 21:23:46 10° NE 21:28:33 47° ESE 21:28:46 47° ESE
Cosmos 2344 4.3 21:19:57 10° NW 21:29:04 85° NE 21:41:17 12° SE
USA 215 3.2 21:26:40 22° ESE 21:31:09 89° SSW 21:37:44 10° NW
Cosmos 2242 Rocket 3.8 21:31:33 55° W 21:31:56 57° WNW 21:36:21 10° N
Cosmos 1461 3.7 21:31:04 38° W 21:32:31 53° NW 21:37:03 10° NNE
ATLAS 2AS CENTAUR R/B 4.0 21:30:53 10° WNW 21:36:06 22° WSW 21:37:04 21° WSW
Cosmos 494 Rocket 3.8 21:34:12 10° NNW 21:39:25 76° WSW 21:40:07 64° SSW
Nimbus 7 Rocket 4.5 21:34:54 10° NNE 21:40:46 72° WNW 21:42:38 45° SW
ISS -2.3 21:45:21 33° NE 21:45:21 33° NE 21:47:24 10° ENE
Cosmos 1300 Rocket 3.5 21:39:54 10° N 21:44:20 71° E 21:44:39 68° ESE
Okean 2 Rocket 3.3 21:41:45 10° N 21:46:07 59° ENE 21:46:35 55° ESE
Cosmos 1867 3.5 21:45:19 52° SW 21:46:44 84° NW 21:52:15 10° NE
Cosmos 2151 Rocket 4.2 21:42:27 10° N 21:46:52 48° ENE 21:47:40 43° ESE
Cosmos 1125 Rocket 3.4 21:46:34 62° SSW 21:47:29 87° ESE 21:52:44 10° NNE
Cosmos 44 Rocket 3.4 21:45:52 10° NW 21:51:09 79° NE 21:52:44 45° SE
Cosmos 1821 Rocket 4.4 21:48:47 10° NNW 21:54:58 52° W 21:56:46 40° SW
USA 281 3.9 21:50:08 15° SE 21:55:23 51° NE 22:01:42 10° NNW
Cosmos 1934 Rocket 3.8 21:49:40 10° N 21:55:51 86° W 21:57:39 49° S
Cosmos 1378 3.8 22:00:19 45° WNW 22:00:19 45° WNW 22:03:38 10° N
ATLAS CENTAUR R/B 1.3 22:02:22 70° NNE 22:02:22 70° NNE 22:05:50 10° NE
YAOGAN 11 4.4 22:03:32 50° ESE 22:04:18 59° ENE 22:08:33 10° N
EO 1 Delta rocket 4.1 22:05:54 55° SSW 22:07:02 76° W 22:13:04 10° NNW
NOSS 2-1 (C) 4.1 22:03:00 10° NW 22:07:49 89° ENE 22:11:15 29° SE
Cosmos 1726 3.8 22:05:01 10° NNE 22:08:12 26° ENE 22:09:01 24° E
USA 81 4.1 22:03:15 10° N 22:08:35 76° E 22:09:57 50° SSE
Meteor 1-15 Rocket 4.3 22:06:17 10° NNW 22:11:56 68° W 22:13:21 50° SSW
Okean 3 4.2 22:14:16 40° W 22:14:37 41° WNW 22:18:39 10° N
NOSS 2-1 (D) 4.1 22:09:48 10° NW 22:14:38 83° SW 22:17:48 31° SE
Lacrosse 5 2.5 22:15:41 39° SE 22:15:44 39° SE 22:20:28 10° ENE
SL-16 R/B 3.5 22:12:50 14° SE 22:17:50 43° ENE 22:23:42 10° N
Cosmos 1943 Rocket 4.2 22:14:22 10° W 22:18:42 22° NW 22:23:02 10° N
Cosmos 2369 Rocket 3.5 22:17:10 19° W 22:20:23 33° NW 22:25:30 10° NNE
Cosmos 1727 Rocket 4.5 22:17:57 33° SSE 22:20:36 53° E 22:26:46 10° NNE
SL-24 R/B 4.1 22:20:41 63° S 22:21:24 85° WSW 22:25:42 10° NNW
Helios 1A 2.9 22:21:59 69° SE 22:22:27 83° ENE 22:26:38 10° NNW
Cosmos 2221 Rocket 3.7 22:28:05 56° WSW 22:28:44 63° WNW 22:33:17 10° N
Cosmos 1733 3.9 22:25:32 10° NNW 22:28:43 42° WNW 22:28:43 42° WNW
Cosmos 1707 4.1 22:28:34 27° ESE 22:29:09 29° E 22:32:30 10° NNE
COSMOS 2487 3.1 22:26:59 10° NNW 22:29:34 47° NW 22:29:34 47° NW
Cosmos 1269 Rocket 4.0 22:27:37 10° NNW 22:32:52 65° WSW 22:34:02 51° SSW
Cosmos 1378 Rocket 3.5 22:34:44 60° SSE 22:35:24 73° E 22:39:43 10° NNE
EO 1 Del DPAF 4.1 22:32:41 10° N 22:36:09 37° WNW 22:36:19 37° WNW
Meteor 2-20 4.5 22:36:26 39° S 22:38:53 77° E 22:45:04 10° NNE
Cosmos 724 4.4 22:38:49 37° SW 22:41:26 78° NW 22:47:44 10° NE
CZ-2D R/B 2.8 22:41:58 10° NNE 22:47:12 47° E 22:49:29 30° SSE
Meteor 2-10 4.0 22:42:46 10° NNW 22:48:12 81° W 22:49:59 43° S
MOZ.5/SAFIR/RUBIN 5/SL-8 3.6 22:48:23 50° S 22:49:35 81° WSW 22:54:15 10° NNW
Cosmos 1766 4.4 22:47:55 10° NNW 22:51:12 31° W 22:51:12 31° W
ADEOS II 3.8 22:47:23 10° NE 22:51:43 25° E 22:54:59 15° SE
Okean 1 Rocket 2.9 22:48:23 10° NNW 22:52:48 77° W 22:53:39 56° SSW
Cosmos 1459 Rocket 4.1 22:53:35 10° N 22:59:53 72° E 23:03:56 23° SSE
Meteor 1-21 4.3 22:57:38 36° S 23:00:07 81° E 23:05:57 10° NNE
Cosmos 1605 Rocket 4.5 22:54:37 10° NNW 23:00:32 46° W 23:02:44 33° SW
Resurs 1-4 Rocket 2.3 22:56:05 10° NNE 23:01:18 62° E 23:03:35 33° S
COSMOS 2455 2.8 22:55:22 10° NW 23:01:26 87° WSW 23:06:40 14° SSE
Cosmos 1674 Rocket 4.0 23:02:08 43° WSW 23:03:05 51° WNW 23:07:27 10° N
Timation 2 Rocket 4.1 22:58:45 10° NNW 23:04:44 68° ENE 23:10:43 10° SE
SeaSat 1 3.7 23:01:32 10° NNE 23:05:55 33° NW 23:08:33 20° W
Cosmos 2227 Rocket 2.6 23:01:21 10° NNW 23:06:58 62° ENE 23:12:34 10° SE
USA 276 3.1 23:08:18 36° ESE 23:08:18 36° ESE 23:10:33 10° E
Cosmos 2297 Rocket 2.2 23:04:25 10° NNW 23:10:08 81° ENE 23:15:24 12° SSE
Cosmos 1470 3.0 23:08:49 10° NNW 23:12:37 50° W 23:13:00 48° WSW
Cosmos 2173 Rocket 3.9 23:06:59 10° N 23:13:12 89° E 23:17:06 25° S
Cosmos 1758 3.2 23:09:56 10° NNW 23:14:03 76° W 23:15:05 48° S
USA 215 3.9 23:13:57 30° SW 23:14:42 31° SW 23:20:24 10° WNW
Okean 2 3.7 23:14:46 43° WSW 23:15:40 53° WNW 23:19:47 10° N
Cosmos 1400 Rocket 3.8 23:13:36 10° NNW 23:17:15 31° W 23:17:25 31° W
ADEOS Rocket 4.2 23:13:31 10° SE 23:20:46 56° ENE 23:28:20 10° N
Cosmos 1315 Rocket 2.7 23:16:47 10° NNW 23:20:47 87° W 23:22:10 40° S
ISS -2.8 23:18:16 13° WNW 23:21:09 48° N 23:24:27 10° E
In-Cosmos 22 4.3 23:20:44 28° S 23:23:45 76° E 23:29:16 10° NNE
Meteor 2-11 Rocket 4.5 23:18:23 10° N 23:24:36 85° E 23:29:14 19° S
UNK 3.7 23:28:11 34° S 23:30:04 64° WSW 23:34:38 10° NNW
Cosmos 1455 Rocket 2.9 23:28:47 10° N 23:33:09 89° W 23:35:28 27° S
Cosmos 1674 2.9 23:33:07 33° SSE 23:34:41 66° E 23:38:30 10° NNE
Helios 1B rocket 2.5 23:31:35 10° N 23:35:43 69° WNW 23:37:16 36° SW
GP-B 4.3 23:32:32 10° NNE 23:36:44 39° E 23:40:39 11° SSE
Cosmos 407 Rocket 4.1 23:32:08 10° NNW 23:37:26 58° ENE 23:42:42 10° SE
Cosmos 1802 Rocket 3.9 23:31:33 10° NNW 23:37:42 76° W 23:42:03 20° S
Cosmos 2100 Rocket 4.2 23:32:20 10° NNW 23:38:29 58° W 23:42:14 24° SSW
USA 281 3.7 23:36:59 26° SSW 23:40:01 39° WSW 23:46:07 10° NW
ATLAS CENTAUR R/B 3.7 23:39:08 10° WNW 23:41:31 16° NNW 23:43:58 10° N
Cosmos 1656 3.6 23:39:44 28° SSW 23:42:41 87° ESE 23:48:15 10° NNE
Cosmos 1726 3.4 23:40:14 10° NW 23:43:17 24° W 23:43:27 24° W
Cosmos 2123 Rocket 4.0 23:43:43 21° S 23:48:05 86° E 23:54:20 10° N
Cosmos 2219 3.2 23:45:12 10° NW 23:50:49 60° WSW 23:56:14 11° S
MINOTAUR 4 R/B 4.5 23:51:55 35° SW 23:52:49 43° W 23:56:16 10° NNW
KORONAS-FOTON 3.8 23:52:59 31° SSW 23:54:47 74° W 23:58:44 10° N
Lacrosse 4 Rocket 2.7 23:52:13 17° S 23:55:02 35° ESE 23:59:04 10° NE
